Regional Weather Roundup
Issued by NWS

Home | Current Version | Previous Version | Graphics & Text | Print | Product List | Glossary On
Versions: 1 2 3 4 5 6 7 8 9 10 11 12 13 14 15 16 17 18 19 20 21 22 23 24 25 26 27 28 29 30 31 32 33 34 35 36 37 38 39 40 41 42 43 44 45 46 47 48 49 50
000
ASUS43 KMKX 300500
RWRWI

WISCONSIN REGIONAL WEATHER ROUNDUP
NATIONAL WEATHER SERVICE MILWAUKEE/SULLIVAN WI
1200 AM CDT THU OCT 30 2014

NOTE: "FAIR" INDICATES FEW OR NO CLOUDS BELOW 12,000 FEET WITH NO
SIGNIFICANT WEATHER AND/OR OBSTRUCTIONS TO VISIBILITY.

WIZ001-002-006>008-014>016-023>028-300600-
NORTHWEST WISCONSIN

CITY           SKY/WX    TMP DP  RH WIND       PRES   REMARKS
SUPERIOR ARPT  CLOUDY    38  33  80 W8        30.08F WCI  33
ASHLAND        CLOUDY    40  33  76 SW3       30.08F
HAYWARD        CLOUDY    38  31  76 SW5       30.08S WCI  34
SIREN          CLOUDY    38  32  78 CALM      30.08F
CUMBERLAND     CLOUDY    34  32  93 CALM      30.08F
RICE LAKE      MOCLDY    34  32  93 CALM      30.10F
CHETEK         MOCLDY    32  31  95 CALM      30.09F
LADYSMITH      PTCLDY    38  32  78 CALM      30.09F
EAU CLAIRE     MOCLDY    36  31  82 CALM      30.09F
MENOMONIE      MOCLDY    35  32  88 CALM      30.09F
NEW RICHMOND   CLOUDY    33  32  96 SE3       30.09S
OSCEOLA        CLOUDY    35  35  99 CALM      30.12S
$$

WIZ003>005-009-010-017-018-300600-
NORTH CENTRAL WISCONSIN

CITY           SKY/WX    TMP DP  RH WIND       PRES   REMARKS
MANITOWISH WTR CLOUDY    35  32  88 W5        30.06S WCI  31
ARBOR VITAE    CLOUDY    39  34  81 W3        30.06F
WOODRUFF       CLOUDY    39  34  81 W3        30.06F
RHINELANDER    CLOUDY    38  31  76 W5        30.07F WCI  34
EAGLE RIVER    CLOUDY    37  30  75 SW3       30.05F
LAND O LAKES   CLOUDY    38  34  83 CALM      30.06S
PHILLIPS       CLOUDY    37  32  82 SW3       30.07F
TOMAHAWK       CLOUDY    37  31  81 CALM      30.08F
MEDFORD        PTCLDY    32  30  94 CALM      30.08S
MERRILL        MOCLDY    33  32  94 CALM      30.08S
$$

WIZ029-030-035-036-043>047-300600-
CENTRAL WISCONSIN

CITY           SKY/WX    TMP DP  RH WIND       PRES   REMARKS
WAUSAU         PTCLDY    34  31  88 NW3       30.08S
MOSINEE        PTCLDY    32  32 100 CALM      30.10S
MARSHFIELD     CLEAR     31  29  92 SW3       30.09S
STEVENS POINT  PTCLDY    27  26  94 CALM      30.11S
WAUPACA        CLEAR     33  32  94 CALM      30.12S
WAUTOMA        NOT AVBL
WISC RAPIDS    PTCLDY    30  28  92 CALM      30.11F
CAMP DOUGLAS   NOT AVBL
$$

WIZ011>013-019>022-031-037>040-048>050-300600-
NORTHEAST WISCONSIN

CITY           SKY/WX    TMP DP  RH WIND       PRES   REMARKS
ANTIGO         PTCLDY    33  32  96 CALM      30.08S
SHAWANO        CLOUDY    42  35  74 CALM      30.11S
OCONTO         CLOUDY    42  35  75 CALM      30.10S
STURGEON BAY   CLOUDY    45  34  65 NW9       30.10S
GREEN BAY      CLOUDY    44  36  73 W6        30.11S
MANITOWOC      NOT AVBL
APPLETON       CLOUDY    37  32  81 W6        30.11S WCI  33
CLINTONVILLE   CLEAR     37  32  81 CALM      30.10F
OSHKOSH        CLEAR     37  31  78 W5        30.11S WCI  33
$$

WIZ032>034-041-042-053>061-300600-
SOUTHWEST WISCONSIN

CITY           SKY/WX    TMP DP  RH WIND       PRES   REMARKS
LA CROSSE      CLEAR     36  32  85 SE6       30.12S WCI  31
SPARTA         PTCLDY    28  28  98 CALM      30.12S
VIROQUA        CLEAR     36  32  86 CALM      30.10S
BOSCOBEL       PTCLDY    31  28  89 CALM      30.14S FOG
PRAIRIE DU CHI PTCLDY    33  31  90 CALM      30.13S
PLATTEVILLE    CLEAR     37  32  81 S3        30.13F
$$

WIZ056-057-062-063-064-067-068-300600-
SOUTH CENTRAL WISCONSIN

CITY           SKY/WX    TMP DP  RH WIND       PRES   REMARKS
REEDSBURG      MOCLDY    32  30  94 CALM      30.12S
BARABOO/DELLS  MOCLDY    32  30  93 CALM      30.12R
LONE ROCK      NOT AVBL
MINERAL POINT  PTCLDY    37  32  81 CALM      30.12S
MADISON        CLEAR     33  30  88 CALM      30.13S
MIDDLETON      CLEAR     32  31  96 CALM      30.13S
WATERTOWN      CLEAR     30  28  94 CALM      30.12S
MONROE         CLEAR     37  32  81 W8        30.12S WCI  31
JANESVILLE     CLEAR     34  32  93 CALM      30.13S
$$

WIZ051-052-058>065-066-070>072-300600-
SOUTHEAST WISCONSIN

CITY           SKY/WX    TMP DP  RH WIND       PRES   REMARKS
MILWAUKEE      CLEAR     39  32  76 CALM      30.12S
WAUKESHA       CLEAR     32  30  93 CALM      30.13S
MILWAUKEE/TIMM FAIR      36  30  80 CALM      30.13S
RACINE         CLEAR     38  32  79 W6        30.14R WCI  33
BURLINGTON     CLEAR     29  28  96 CALM      30.13R
KENOSHA        CLEAR     33  30  88 W3        30.13R
FOND DU LAC    CLEAR     32  29  88 CALM      30.12S
SHEBOYGAN      CLEAR     34  30  85 W3        30.12R
WEST BEND      CLEAR     32  30  93 CALM      30.12R
JUNEAU         CLEAR     32  30  91 CALM      30.13S
$$

LSZ147-162-300600-
LAKE SUPERIOR

STATION/POSITION TIME  TEMP    WIND        PRES    WAVE
                       AIR SEA DIR/SP/G            HT/PER
                 (UTC) (F)     (DEG/KT/KT) (MB)    (FT/S)
W MID LAKE BUOY  0350   44 45  260/  6/  8 1018.1S   1/ 4
DEVILS ISLAND    0400   43     240/ 16/ 17 1018.7R
PORT WING        0400   41     220/  5/ 10 1018.6
SAXON HARBOR     0400   42     200/  2/  4 1018.6S
$$

LMZ867-665-643>646-300600-
LAKE MICHIGAN

STATION/POSITION TIME  TEMP    WIND        PRES    WAVE
                       AIR SEA DIR/SP/G            HT/PER
                 (UTC) (F)     (DEG/KT/KT) (MB)    (FT/S)
CHAMBERS ISLAND  0400   44     310/  8/ 10 1019.3R
N MID LAKE BUOY  0350   44 51  360/  8/ 10 1019.3R   1/ 4
NORTHPORT PIER   0400   44      40/  5/  7 1019.0S
KEWAUNEE LAKESHO 0400   46     250/  5/  6 1018.3R
SHEBOYGAN LAKESH 0400   45 50  270/  3/  4 1020.4R
PORT WASHINGTON  0400   39     270/  4/  4 1020.7
ATWATER BUOY     0400   46     270/  2/  2 1020.9F
MILWAUKEE LAKESH 0400   45     280/  2/  2   N/A
S MID LAKE BUOY  0350   48 53  270/  6/  8 1020.3F
KENOSHA   LAKESH 0400   42     250/  5/  7 1020.0S
$$

TC  - TEMPERATURE IN CELSIUS
VSB - VISIBILITY IN STATUTE MILES
WCI - WIND CHILL INDEX
HX  - HEAT INDEX




USA.gov is the U.S. government's official web portal to all federal, state and local government web resources and services.